[[{"header":{"parameterUnit":"m.s-1","parameterCategory":1,"la1":30.2991,"la2":30.254,"lo1":-89.0895,"lo2":-89.0444,"dy":0.0017,"dx":0.0017,"nx":28,"ny":28,"refTime":"2025-08-03T21:00:00:Z","depth":0,"parameterNumber":2,"parameterNumberName":"U-component_of_WINDS"},"data":[0,0,0,0,0,0,0,0,0,0,0,0,0,0,0,0,0,0,0,0,0,0,0,0,0,0,0,0,0,0,0,0,0,0,0,0,0,0,0,0,0,0,0,0,0,0,0,0,0,0,0,0,0,0,0,0,0,0,2.2425,2.2427,0,2.256,2.2562,2.2563,2.2574,2.2573,2.2571,2.257,2.2714,2.2719,2.2724,0,0,0,0,0,0,0,0,0,0,0,0,0,2.2183,2.2187,2.2425,2.2427,2.2429,2.256,2.2562,2.2564,2.2575,2.2573,2.2571,2.2569,2.2712,2.2718,2.2724,0,0,0,0,0,0,0,0,0,0,0,0,0,2.23,2.2188,2.2425,2.245,2.2453,2.256,2.2562,2.2564,2.2575,2.2573,2.2571,2.2568,2.271,2.2717,2.2725,2.2817,0,0,2.2749,2.2752,0,0,0,0,0,0,0,0,2.2293,2.2309,2.2444,2.2448,2.2452,2.2548,2.2529,2.2649,2.2576,2.2529,2.257,2.2567,2.2661,2.2672,2.2703,2.2824,2.283,2.275,2.2754,2.2758,2.276,0,0,0,0,0,0,0,2.2285,2.2303,2.2479,2.2446,2.2451,2.2456,2.247,2.2552,2.2606,2.2533,2.2534,2.2549,2.2662,2.2695,2.2706,2.2832,2.2749,2.2756,2.2761,2.2764,2.3038,2.304,0,0,0,0,0,0,2.2271,2.2296,2.2474,2.2483,2.2365,2.2462,2.2478,2.252,2.2605,2.2616,2.2551,2.2549,2.2683,2.2697,2.2711,2.2825,2.2758,2.2765,2.2769,2.3035,2.3038,2.3041,0,0,0,0,0,0,2.2266,2.2287,2.2469,2.239,2.2413,2.2469,2.2515,2.2523,2.2556,2.2619,2.2629,2.2574,2.2682,2.27,2.2791,2.283,2.2768,2.2776,2.3032,2.3036,2.3039,2.3053,0,0,0,0,0,0,2.2259,2.2285,2.2319,2.239,2.2417,2.2544,2.2518,2.2528,2.2569,2.2568,2.2643,2.2653,2.2681,2.2779,2.2798,2.284,2.2782,2.3029,2.3034,2.3038,2.305,2.3057,2.3064,0,0,0,0,0,2.225,2.2319,2.2321,2.2343,2.2461,2.2547,2.2562,2.2592,2.2572,2.2608,2.2648,2.2651,2.2823,2.2788,2.281,2.2854,2.3026,2.3032,2.3038,2.3046,2.3056,2.3063,0,0,0,0,0,0,2.2253,2.2329,2.2332,2.2425,2.2479,2.2548,2.2594,2.26,2.2663,2.2659,2.2695,2.2712,2.2801,2.2837,2.2797,2.2949,2.2923,2.2933,2.2922,2.2931,2.2938,2.2927,2.2788,0,0,0,0,0,2.2264,2.2325,2.2389,2.2465,2.2492,2.2538,2.2577,2.2595,2.2653,2.2676,2.2723,2.2781,2.2848,2.2892,2.2957,2.3055,2.3072,2.3097,2.3104,2.3109,2.3118,2.3173,2.3185,2.306,2.306,2.306,0,0,2.2288,2.2337,2.2374,2.2467,2.2511,2.2575,2.2558,2.2627,2.2675,2.2687,2.2775,2.2812,2.2879,2.2974,2.3018,2.3006,2.3156,2.3117,2.312,2.3126,2.318,2.3192,2.3202,2.3064,2.3063,2.3063,0,0,2.2364,2.2407,2.2476,2.252,2.2586,2.2617,2.2633,2.2702,2.2726,2.2814,2.2825,2.2884,2.2999,2.3046,2.3086,2.3181,2.3186,2.3202,2.3238,2.3292,2.3302,2.331,2.3345,2.3356,2.321,2.321,2.321,0,2.2386,2.2482,2.251,2.2579,2.262,2.2633,2.2703,2.2745,2.283,2.2859,2.2845,2.2989,2.3035,2.3141,2.3165,2.3196,2.3217,2.3193,2.3297,2.3307,2.3316,2.3349,2.3361,2.3212,2.3211,2.3211,2.3211,0,2.2506,2.2572,2.262,2.2699,2.2746,2.2815,2.2856,2.29,2.2915,2.2947,2.3038,2.3093,2.317,2.3197,2.3212,2.3306,2.3297,2.329,2.3264,2.3328,2.336,2.3373,2.3213,2.3213,2.3213,2.3212,0,0,2.2586,2.2681,2.2698,2.2735,2.281,2.2862,2.2933,2.3006,2.3044,2.3103,2.3163,2.326,2.3254,2.3299,2.332,2.3367,2.3439,2.3354,2.3356,2.3368,2.3546,2.355,2.3565,2.3443,2.3446,2.3448,2.3541,0,2.2671,2.2795,2.2823,2.293,2.2992,2.3006,2.3068,2.3121,2.3154,2.3213,2.325,2.3318,2.3305,2.3332,2.3379,2.342,2.3475,2.3414,2.3501,2.3504,2.3483,2.3581,2.3586,2.3671,2.3553,2.3555,2.3557,0,2.2786,2.2846,2.2958,2.3025,2.3052,2.3107,2.3177,2.3233,2.3294,2.3315,2.3365,2.3381,2.3457,2.3428,2.3533,2.3491,2.3529,2.3555,2.3559,2.3568,2.3534,2.3593,2.3698,2.3711,2.3577,2.3575,2.3574,0,2.2833,2.2942,2.3024,2.3055,2.3135,2.3173,2.3208,2.3268,2.331,2.3372,2.3401,2.3471,2.351,2.3565,2.3601,2.3576,2.3704,2.3678,2.3724,2.3723,2.375,2.3748,2.3863,2.3775,2.3775,2.3774,2.3774,0,2.2925,2.2993,2.3046,2.3096,2.3174,2.3207,2.3283,2.3319,2.3372,2.3431,2.3448,2.3503,2.3546,2.3608,2.3637,2.372,2.3738,2.3758,2.3764,2.3756,2.3753,2.378,2.3775,2.3778,2.3777,2.3776,2.3776,0,2.299,2.3028,2.3118,2.3186,2.3205,2.3259,2.3319,2.3369,2.3402,2.3476,2.3496,2.3549,2.3622,2.3663,2.3756,2.3775,2.3868,2.3872,2.3847,2.3849,2.3893,2.3888,2.403,2.405,2.3949,2.395,2.3951,0,2.3046,2.3098,2.3172,2.3212,2.3247,2.3311,2.3354,2.339,2.3434,2.3509,2.355,2.3624,2.3685,2.3802,2.385,2.3922,2.3927,2.3972,2.3938,2.3928,2.3928,2.3924,2.393,2.3978,2.3979,2.3979,2.398,0,2.314,2.3156,2.3217,2.3285,2.3335,2.3391,2.3446,2.3478,2.3523,2.3572,2.3647,2.3694,2.3788,2.3862,2.3937,2.3976,2.3986,2.399,2.4005,2.3996,2.3979,2.3989,2.3862,2.3987,2.3986,2.3986,2.3985,2.3985,2.3202,2.3249,2.3309,2.3376,2.3421,2.3472,2.3523,2.3562,2.3624,2.3702,2.372,2.3798,2.386,2.3962,2.4003,2.4066,2.4058,2.4079,2.4084,2.4088,2.409,2.3969,2.408,2.408,2.408,2.4079,2.4079,0,2.3297,2.3335,2.3397,2.3473,2.3526,2.353,2.3591,2.3636,2.3704,2.376,2.382,2.3906,2.3978,2.4031,2.4105,2.4145,2.4152,2.4164,2.4161,2.4169,2.4093,2.4073,2.4157,2.4157,2.4157,2.4157,2.4157,2.4157,2.3352,2.3433,2.3456,2.356,2.3599,2.3675,2.3709,2.3757,2.3802,2.3897,2.3956,2.399,2.4045,2.4123,2.419,2.4204,2.423,2.4241,2.4256,2.4183,2.4175,2.4167,2.4148,2.4247,2.4247,2.4327,2.4328,2.4328]},{"header":{"parameterUnit":"m.s-1","parameterCategory":1,"la1":30.2991,"la2":30.254,"lo1":-89.0895,"lo2":-89.0444,"dy":0.0017,"dx":0.0017,"nx":28,"ny":28,"refTime":"2025-08-03T21:00:00:Z","depth":0,"parameterNumber":3,"parameterNumberName":"V-component_of_WINDS"},"data":[0,0,0,0,0,0,0,0,0,0,0,0,0,0,0,0,0,0,0,0,0,0,0,0,0,0,0,0,0,0,0,0,0,0,0,0,0,0,0,0,0,0,0,0,0,0,0,0,0,0,0,0,0,0,0,0,0,0,0.2617,0.2618,0,0.2742,0.2744,0.2745,0.2683,0.268,0.2677,0.2674,0.2804,0.281,0.2817,0,0,0,0,0,0,0,0,0,0,0,0,0,0.2324,0.2329,0.2617,0.2619,0.262,0.2742,0.2744,0.2746,0.2684,0.268,0.2676,0.2672,0.2802,0.2809,0.2817,0,0,0,0,0,0,0,0,0,0,0,0,0,0.245,0.2331,0.2617,0.2604,0.2604,0.2742,0.2744,0.2746,0.2685,0.268,0.2675,0.267,0.2799,0.2809,0.2818,0.2976,0,0,0.2848,0.2852,0,0,0,0,0,0,0,0,0.2443,0.2461,0.2604,0.2605,0.2606,0.2692,0.2688,0.2823,0.2686,0.2654,0.2674,0.2668,0.2771,0.2782,0.2817,0.2982,0.2988,0.2849,0.2855,0.2859,0.2862,0,0,0,0,0,0,0,0.2435,0.2455,0.2667,0.2607,0.2607,0.2592,0.2604,0.2713,0.2738,0.2657,0.2652,0.2668,0.277,0.2808,0.2819,0.299,0.2849,0.2857,0.2863,0.2867,0.3287,0.3292,0,0,0,0,0,0,0.2426,0.2449,0.2663,0.267,0.2511,0.2601,0.2615,0.2669,0.2737,0.2743,0.2672,0.2665,0.2793,0.2808,0.2824,0.3011,0.2859,0.2868,0.2874,0.3282,0.3288,0.3294,0,0,0,0,0,0,0.242,0.2446,0.2658,0.2558,0.2584,0.2611,0.2673,0.2674,0.2712,0.2749,0.2753,0.2706,0.279,0.281,0.2938,0.3015,0.2872,0.2881,0.3275,0.3284,0.3291,0.3388,0,0,0,0,0,0,0.2412,0.2444,0.2505,0.256,0.259,0.277,0.2677,0.268,0.2729,0.272,0.2781,0.2787,0.2788,0.2923,0.2947,0.3025,0.2889,0.3269,0.3279,0.3289,0.3378,0.3398,0.3416,0,0,0,0,0,0.2402,0.2528,0.2508,0.2534,0.2666,0.2775,0.2792,0.279,0.2735,0.2796,0.2819,0.2785,0.3002,0.2937,0.2963,0.3046,0.3264,0.3276,0.3288,0.337,0.3394,0.3415,0,0,0,0,0,0,0.2483,0.2535,0.2514,0.2662,0.2714,0.2764,0.2841,0.2816,0.2886,0.2875,0.287,0.2884,0.3016,0.3044,0.297,0.32,0.3124,0.3142,0.3178,0.3201,0.322,0.3211,0.2897,0,0,0,0,0,0.2518,0.2601,0.2643,0.277,0.2797,0.2814,0.2862,0.2855,0.2909,0.2932,0.2964,0.3018,0.3098,0.3151,0.3227,0.3381,0.3393,0.345,0.3469,0.3484,0.35,0.3581,0.3606,0.3333,0.3333,0.3333,0,0,0.2591,0.263,0.2684,0.2787,0.2826,0.2913,0.2834,0.2929,0.2993,0.2946,0.3068,0.3094,0.3153,0.3294,0.3358,0.3321,0.3578,0.35,0.3511,0.3519,0.3596,0.3622,0.3645,0.3341,0.334,0.3339,0,0,0.2769,0.2807,0.2916,0.2956,0.3017,0.3027,0.3053,0.3107,0.3121,0.3243,0.3209,0.3285,0.3423,0.3466,0.3507,0.3697,0.3667,0.3722,0.382,0.3899,0.392,0.3939,0.4006,0.403,0.3737,0.3737,0.3737,0,0.2853,0.2982,0.2975,0.3072,0.3118,0.3078,0.3187,0.3227,0.3309,0.3341,0.3299,0.3469,0.3507,0.3656,0.3702,0.3737,0.3765,0.3715,0.3918,0.3937,0.3954,0.4018,0.4043,0.3743,0.3743,0.3742,0.3741,0,0.3081,0.317,0.3251,0.333,0.3384,0.3487,0.3495,0.3551,0.3539,0.3554,0.3677,0.372,0.3802,0.3837,0.3827,0.3985,0.3959,0.3918,0.3841,0.3987,0.4046,0.407,0.3752,0.375,0.3748,0.3746,0,0,0.3316,0.3387,0.3417,0.3451,0.3513,0.3582,0.3682,0.3761,0.3809,0.3866,0.3949,0.4065,0.4026,0.4071,0.4065,0.4135,0.428,0.4084,0.4085,0.4118,0.4453,0.4484,0.4513,0.426,0.4265,0.4269,0.4448,0,0.3497,0.3672,0.3667,0.3829,0.3911,0.3872,0.3959,0.4006,0.4021,0.4092,0.4109,0.4191,0.4134,0.416,0.4227,0.4248,0.4347,0.4235,0.4337,0.434,0.4323,0.4544,0.4578,0.4745,0.4471,0.4475,0.4478,0,0.3733,0.3796,0.3966,0.4013,0.4047,0.4125,0.4196,0.4265,0.4316,0.4322,0.4371,0.4354,0.4453,0.4374,0.4511,0.4434,0.4475,0.4491,0.4498,0.4507,0.4418,0.4559,0.4799,0.4824,0.4515,0.4512,0.4509,0,0.3885,0.4013,0.413,0.4161,0.422,0.4275,0.4302,0.4348,0.4395,0.4457,0.4487,0.4561,0.4601,0.4657,0.4659,0.4601,0.4796,0.4717,0.4803,0.4804,0.4847,0.4845,0.5097,0.4874,0.4874,0.4873,0.4873,0,0.4088,0.4193,0.4199,0.4272,0.4388,0.4381,0.4496,0.4517,0.4558,0.4633,0.4604,0.4675,0.4673,0.4745,0.4747,0.4858,0.4877,0.4884,0.4883,0.4887,0.4886,0.4914,0.4902,0.488,0.4878,0.4877,0.4876,0,0.4279,0.4287,0.4413,0.4457,0.447,0.4553,0.4591,0.4659,0.467,0.4765,0.4787,0.4805,0.4888,0.4895,0.4991,0.4992,0.5127,0.5114,0.5109,0.5107,0.5192,0.5184,0.5471,0.5508,0.5262,0.5264,0.5266,0,0.4408,0.4488,0.4539,0.4587,0.4617,0.4694,0.4741,0.4736,0.4787,0.4849,0.491,0.4989,0.5052,0.5186,0.5207,0.528,0.5268,0.5363,0.5279,0.5278,0.5268,0.5263,0.527,0.538,0.5383,0.5385,0.5387,0,0.4636,0.4635,0.4704,0.4774,0.4831,0.4886,0.4937,0.4978,0.4979,0.5036,0.512,0.5169,0.5265,0.5344,0.5414,0.5441,0.5414,0.5413,0.5436,0.5441,0.5435,0.5438,0.5154,0.5407,0.5405,0.5403,0.5402,0.5401,0.4799,0.4867,0.4913,0.499,0.5028,0.5076,0.5141,0.5159,0.5229,0.5306,0.5299,0.5391,0.5437,0.5528,0.556,0.5631,0.5599,0.5634,0.5642,0.5651,0.5659,0.5423,0.5644,0.5644,0.5643,0.5643,0.5642,0,0.5024,0.5051,0.5122,0.5194,0.5254,0.5221,0.5276,0.5328,0.5409,0.5454,0.5516,0.5611,0.5686,0.5712,0.5785,0.5836,0.5826,0.5856,0.5852,0.5858,0.5685,0.5656,0.5863,0.5863,0.5863,0.5863,0.5863,0.5863,0.5149,0.5261,0.5266,0.5396,0.5422,0.5511,0.5544,0.5587,0.5623,0.573,0.5791,0.5807,0.5845,0.5919,0.5986,0.5991,0.6019,0.6054,0.6055,0.5893,0.587,0.5849,0.5823,0.6061,0.6061,0.6222,0.6223,0.6225]}]]